Location: Beaufort Park
(39.1418°N, 76.9433°W)
Time: 23:10:58
(UTC+00:00)

Helios 1A Rocket - Pass Details

Date: 29 October 2020
Orbit: 563 x 586 km, 98.3° (Epoch: 03 December)

Event Time Altitude Azimuth Distance (km) Brightness Sun altitude
Rises 23:34:49 0° 165° (SSE) 2,793 6.3 -17.0°
Reaches altitude 10° 23:36:57 10° 165° (SSE) 1,895 5.4 -17.4°
Maximum altitude 23:41:04 89° 78° (ENE) 586 2.8 -18.2°
Drops below altitude 10° 23:45:11 10° 347° (NNW) 1,897 5.7 -19.0°
Sets 23:47:20 0° 348° (NNW) 2,796 6.6 -19.5°
